This is the latest recevied weather packets stored in our database for station/object XE2KK-10. If no packets are shown the sender has not sent any weather packets the latest 10 day(s).
| Time | Temp. | Humidity | Pressure | Rain* | Wind** | Luminosity | Snow |
|---|---|---|---|---|---|---|---|
| 1777588753 | 30° C | 59% | 1005.3 hPa | 0 mm | - | 388 W/m² | - |
| 1777588453 | 30° C | 59% | 1005.5 hPa | 0 mm | - | 370 W/m² | - |
| 1777588153 | 30° C | 60% | 1005.5 hPa | 0 mm | - | 374 W/m² | - |
| 1777587853 | 30° C | 59% | 1005.6 hPa | 0 mm | - | 359 W/m² | - |
| 1777587552 | 30° C | 60% | 1005.7 hPa | 0 mm | - | 336 W/m² | - |
| 1777587252 | 30° C | 59% | 1006.1 hPa | 0 mm | - | 365 W/m² | - |
| 1777586953 | 30° C | 59% | 1006 hPa | 0 mm | - | 457 W/m² | - |
| 1777586653 | 30° C | 60% | 1006 hPa | 0 mm | - | 470 W/m² | - |
| 1777586353 | 30° C | 60% | 1006 hPa | 0 mm | - | 274 W/m² | - |
| 1777586052 | 30° C | 59% | 1005.9 hPa | 0 mm | - | 354 W/m² | - |
| 1777585753 | 30° C | 60% | 1006.1 hPa | 0 mm | - | 464 W/m² | - |
| 1777585453 | 30° C | 60% | 1006.1 hPa | 0 mm | - | 491 W/m² | - |
| 1777585153 | 30° C | 60% | 1006.2 hPa | 0 mm | - | 364 W/m² | - |
| 1777584853 | 30° C | 60% | 1006.2 hPa | 0 mm | - | 399 W/m² | - |
| 1777584553 | 30° C | 60% | 1006.4 hPa | 0 mm | - | 587 W/m² | - |
| 1777584252 | 30.56° C | 60% | 1006.5 hPa | 0 mm | - | 341 W/m² | - |
| 1777583953 | 30.56° C | 59% | 1006.4 hPa | 0 mm | - | 597 W/m² | - |
| 1777583653 | 30.56° C | 60% | 1006.5 hPa | 0 mm | - | 389 W/m² | - |
| 1777583353 | 30.56° C | 59% | 1006.6 hPa | 0 mm | - | 424 W/m² | - |
| 1777583053 | 30.56° C | 60% | 1006.5 hPa | 0 mm | - | 664 W/m² | - |
| 1777582753 | 30.56° C | 59% | 1006.6 hPa | 0 mm | - | 619 W/m² | - |
| 1777582452 | 30.56° C | 59% | 1006.4 hPa | 0 mm | - | 641 W/m² | - |
| 1777582153 | 30.56° C | 60% | 1006.4 hPa | 0 mm | - | 668 W/m² | - |
| 1777581853 | 30° C | 61% | 1006.8 hPa | 0 mm | - | 567 W/m² | - |
| 1777581553 | 30° C | 61% | 1007 hPa | 0 mm | - | 642 W/m² | - |
* Rain latest hour (hover to see other rain measurements)
** Current wind speed in m/s (hover to see current wind gust speed)